VK2OU Weather Reports


Display with metric or nautical units.
time (UTC)temp
F
wind
direction
speed
MPH
gust
MPH
rain 1hr
in
rain 24hr
in
rain mn
in
humidity
%
barometer
mb
20260905070530 52 275 9.0 22.0 0.00 0.00 0.00 95
20260905065523 53 275 9.0 18.0 0.00 0.00 0.00 94
20260905064530 53 280 7.0 14.0 0.00 0.00 0.00 93
20260905063522 53 269 11.0 23.0 0.00 0.00 0.00 92
20260905062530 53 286 9.0 16.0 0.00 0.00 0.00 92
20260905061522 53 293 9.0 18.0 0.00 0.00 0.00 94
20260905060532 53 285 6.0 18.0 0.00 0.00 0.00 95
20260905055522 52 291 6.0 13.0 0.00 0.00 0.00 96
20260905054530 52 304 6.0 13.0 0.00 0.00 0.00 96
20260905053523 52 291 6.0 10.0 0.00 0.00 0.00 96
20260905052530 52 287 6.0 11.0 0.00 0.00 0.00 97
20260905051542 51 290 7.0 21.0 0.00 0.00 0.00 96
20260905050530 51 276 4.0 9.0 0.00 0.00 0.00 96
20260905045522 51 277 3.0 8.0 0.00 0.00 0.00 96
20260905044530 52 279 4.0 9.0 0.00 0.00 0.00 95
20260905043523 52 281 5.0 11.0 0.00 0.00 0.00 94
20260905042530 52 280 5.0 11.0 0.00 0.00 0.00 93
20260905041523 52 287 7.0 15.0 0.00 0.00 0.00 91
20260905040550 53 279 7.0 13.0 0.00 0.00 0.00 90
20260905035643 53 264 9.0 19.0 0.00 0.00 0.00 89
20260905034530 54 263 8.0 15.0 0.00 0.00 0.00 87
20260905033623 56 268 9.0 21.0 0.00 0.00 0.00 82
20260905032531 56 287 7.0 18.0 0.00 0.00 0.00 82
20260905031522 57 277 9.0 19.0 0.00 0.00 0.00 82
20260905030531 58 287 9.0 21.0 0.00 0.00 0.00 79
20260905025538 58 280 9.0 22.0 0.00 0.00 0.00 78
20260905024531 58 278 11.0 26.0 0.00 0.00 0.00 76
20260905023522 59 286 9.0 19.0 0.00 0.00 0.00 76
20260905022530 59 281 10.0 22.0 0.00 0.00 0.00 76
20260905021523 59 274 7.0 17.0 0.00 0.00 0.00 79
20260905020530 59 285 9.0 24.0 0.00 0.00 0.00 79
20260905015523 58 285 9.0 19.0 0.00 0.00 0.00 82
20260905014531 58 277 8.0 16.0 0.00 0.00 0.00 84
20260905013522 57 272 7.0 17.0 0.00 0.00 0.00 86
20260905012531 57 282 4.0 9.0 0.00 0.00 0.00 89
20260905011543 56 273 6.0 13.0 0.00 0.00 0.00 91
20260905010531 56 281 5.0 13.0 0.00 0.00 0.00 93
20260905005522 55 282 4.0 10.0 0.00 0.00 0.00 94
20260905004531 54 283 5.0 13.0 0.00 0.00 0.00 93
20260905003522 54 282 6.0 13.0 0.00 0.00 0.00 92
20260905002530 54 279 6.0 13.0 0.00 0.00 0.00 91
20260905001542 54 282 6.0 10.0 0.00 0.00 0.00 92
20260905000531 54 282 6.0 11.0 0.00 0.00 0.00 89
20260904235523 55 271 8.0 19.0 0.00 0.00 0.00 87
20260904234530 57 276 6.0 14.0 0.00 0.00 0.00 80
20260904233523 55 292 5.0 11.0 0.00 0.00 0.00 83
20260904232611 55 276 5.0 17.0 0.00 0.00 0.00 81
20260904231523 55 284 9.0 19.0 0.00 0.00 0.00 79
20260904230531 54 280 6.0 15.0 0.00 0.00 0.00 83
20260904225522 55 291 7.0 16.0 0.00 0.00 0.00 78
20260904224551 56 287 8.0 16.0 0.00 0.00 0.00 73
20260904223523 55 291 7.0 17.0 0.00 0.00 0.00 73
20260904222530 56 275 6.0 17.0 0.00 0.00 0.00 71
20260904221522 55 283 6.0 11.0 0.00 0.00 0.00 71
20260904220531 55 289 3.0 7.0 0.00 0.00 0.00 74
20260904215523 54 284 3.0 7.0 0.00 0.00 0.00 76
20260904214530 53 287 2.0 5.0 0.00 0.00 0.00 78
20260904213523 53 285 2.0 5.0 0.00 0.00 0.00 78
20260904212531 52 281 1.0 3.0 0.00 0.00 0.00 81
20260904211523 50 272 1.0 3.0 0.00 0.00 0.00 84
20260904210531 49 275 2.0 6.0 0.00 0.00 0.00 87
20260904205523 48 275 1.0 2.0 0.00 0.00 0.00 91
20260904204531 47 0.0 0.0 0.00 0.00 0.00 92
20260904203523 47 239 0.0 1.0 0.00 0.00 0.00 91
20260904202531 48 242 1.0 1.0 0.00 0.00 0.00 90
20260904201523 48 252 1.0 2.0 0.00 0.00 0.00 87
20260904200532 49 276 3.0 9.0 0.00 0.00 0.00 88
20260904195523 49 278 3.0 8.0 0.00 0.00 0.00 87
20260904194531 49 281 3.0 8.0 0.00 0.00 0.00 87
20260904193522 49 273 2.0 6.0 0.00 0.00 0.00 86
20260904192530 50 284 2.0 7.0 0.00 0.00 0.00 86
20260904191523 50 263 2.0 5.0 0.00 0.00 0.00 86
20260904190531 50 253 2.0 3.0 0.00 0.00 0.00 86
20260904185523 50 255 2.0 5.0 0.00 0.00 0.00 86
20260904184531 50 269 3.0 8.0 0.00 0.00 0.00 86
20260904183523 50 264 2.0 7.0 0.00 0.00 0.00 86
20260904182531 50 256 2.0 5.0 0.00 0.00 0.00 86
20260904181524 50 262 3.0 9.0 0.00 0.00 0.00 86
20260904180531 50 281 2.0 7.0 0.00 0.00 0.00 86
20260904175523 50 268 2.0 6.0 0.00 0.00 0.00 86
20260904174531 50 274 3.0 7.0 0.00 0.00 0.00 85
20260904173523 51 274 4.0 8.0 0.00 0.00 0.00 85
20260904172551 51 280 6.0 11.0 0.00 0.00 0.00 85
20260904171524 51 283 5.0 11.0 0.00 0.00 0.00 85
20260904170531 51 280 6.0 10.0 0.00 0.00 0.00 85
20260904165523 51 271 5.0 9.0 0.00 0.00 0.00 85
20260904164530 50 284 5.0 11.0 0.00 0.00 0.00 85
20260904163539 50 280 5.0 10.0 0.00 0.00 0.00 86
20260904162531 50 274 4.0 8.0 0.00 0.00 0.00 86
20260904161523 50 276 4.0 9.0 0.00 0.00 0.00 87
20260904160531 49 278 4.0 10.0 0.00 0.00 0.00 88
20260904155523 49 270 4.0 7.0 0.00 0.00 0.00 89
20260904154531 49 275 4.0 10.0 0.00 0.00 0.00 91
20260904153523 48 278 3.0 10.0 0.00 0.00 0.00 92
20260904152531 48 253 1.0 5.0 0.00 0.00 0.00 91
20260904151603 49 276 2.0 5.0 0.00 0.00 0.00 91
20260904150551 49 264 2.0 2.0 0.00 0.00 0.00 90
20260904145522 49 275 2.0 8.0 0.00 0.00 0.00 90
20260904144533 49 296 3.0 7.0 0.00 0.00 0.00 90
20260904143523 49 282 4.0 8.0 0.00 0.00 0.00 90
20260904142530 49 283 4.0 10.0 0.00 0.00 0.00 90
20260904141523 49 280 4.0 8.0 0.00 0.00 0.00 90
20260904140531 49 286 4.0 9.0 0.00 0.00 0.00 90
20260904135523 49 279 2.0 7.0 0.00 0.00 0.00 90
20260904134531 50 276 3.0 10.0 0.00 0.00 0.00 89
20260904133523 50 282 5.0 8.0 0.00 0.00 0.00 90
20260904132531 49 267 3.0 9.0 0.00 0.00 0.00 91
20260904131523 49 258 2.0 5.0 0.00 0.00 0.00 92
20260904130531 49 283 2.0 5.0 0.00 0.00 0.00 92
20260904125527 49 255 1.0 3.0 0.00 0.00 0.00 92
20260904124531 49 273 2.0 7.0 0.00 0.00 0.00 91
20260904123523 49 234 0.0 2.0 0.00 0.00 0.00 90
20260904122531 50 264 2.0 3.0 0.00 0.00 0.00 89
20260904121523 50 278 3.0 6.0 0.00 0.00 0.00 89
20260904120531 50 278 3.0 6.0 0.00 0.00 0.00 88
20260904115523 50 276 3.0 8.0 0.00 0.00 0.00 88
20260904114552 50 267 3.0 7.0 0.00 0.00 0.00 88
20260904113523 50 271 4.0 9.0 0.00 0.00 0.00 87
20260904112531 50 272 3.0 6.0 0.00 0.00 0.00 87
20260904111603 50 275 3.0 9.0 0.00 0.00 0.00 86
20260904110531 50 272 2.0 5.0 0.00 0.00 0.00 85
20260904105523 50 277 2.0 5.0 0.00 0.00 0.00 85
20260904104531 50 260 2.0 6.0 0.00 0.00 0.00 84
20260904103523 51 270 3.0 7.0 0.00 0.00 0.00 83
20260904102531 51 284 3.0 9.0 0.00 0.00 0.00 82
20260904101523 51 282 4.0 10.0 0.00 0.00 0.00 81
20260904100531 51 261 4.0 9.0 0.00 0.00 0.00 82
20260904095523 51 244 2.0 6.0 0.00 0.00 0.00 81
20260904094530 51 257 2.0 6.0 0.00 0.00 0.00 80
20260904093523 51 273 3.0 6.0 0.00 0.00 0.00 79
20260904092531 52 278 4.0 8.0 0.00 0.00 0.00 79
20260904091523 52 280 5.0 9.0 0.00 0.00 0.00 78
20260904090531 52 275 3.0 7.0 0.00 0.00 0.00 76
20260904085523 52 282 4.0 9.0 0.00 0.00 0.00 75
20260904084531 53 268 5.0 13.0 0.00 0.00 0.00 74
20260904083540 53 266 5.0 10.0 0.00 0.00 0.00 73
20260904082531 53 273 6.0 13.0 0.00 0.00 0.00 72
20260904081524 53 283 6.0 11.0 0.00 0.00 0.00 71
20260904080531 54 269 4.0 9.0 0.00 0.00 0.00 70
20260904075523 54 279 6.0 10.0 0.00 0.00 0.00 68
20260904074553 54 278 6.0 14.0 0.00 0.00 0.00 67
20260904073523 55 273 5.0 9.0 0.00 0.00 0.00 66
20260904072531 55 271 4.0 10.0 0.00 0.00 0.00 65
20260904071523 55 273 4.0 11.0 0.00 0.00 0.00 63